KC5AV Weather Reports


time (UTC)temp
C
wind
direction
speed
KPH
gust
KPH
rain 1hr
cm
rain 24hr
cm
rain mn
cm
humidity
%
barometer
mb
20260502163714 21 148 0.0 8.0 0.00 0.00 0.00 49 1022.3
20260502163211 21 148 0.0 8.0 0.00 0.00 0.00 49 1022.3
20260502162708 21 206 3.2 8.0 0.00 0.00 0.00 50 1022.5
20260502162204 21 94 3.2 6.4 0.00 0.00 0.00 53 1022.3
20260502161702 21 296 1.6 6.4 0.00 0.00 0.00 54 1022.5
20260502161158 21 333 1.6 6.4 0.00 0.00 0.00 55 1022.3
20260502160656 20 142 0.0 9.7 0.00 0.00 0.00 59 1022.5
20260502160155 21 246 6.4 8.0 0.00 0.00 0.00 53 1022.4
20260502152109 21 19 3.2 3.2 0.00 0.00 0.00 61 1022.0
20260502151606 20 66 0.0 3.2 0.00 0.00 0.00 64 1022.0
20260502151103 20 114 3.2 4.8 0.00 0.00 0.00 63 1021.9
20260502150601 20 85 3.2 4.8 0.00 0.00 0.00 59 1021.9
20260502130445 11 8 0.0 1.6 0.00 0.00 0.00 99 1021.4
20260502123428 10 49 0.0 0.0 0.00 0.00 0.00 98 1021.0
20260502122925 10 89 0.0 1.6 0.00 0.00 0.00 98 1020.9
20260502122421 10 51 0.0 1.6 0.00 0.00 0.00 98 1020.7
20260502121920 9 51 0.0 0.0 0.00 0.00 0.00 98 1020.6
20260502121416 9 89 0.0 0.0 0.00 0.00 0.00 98 1020.4
20260502120914 9 69 0.0 1.6 0.00 0.00 0.00 97 1020.2
20260502120410 9 86 0.0 0.0 0.00 0.00 0.00 97 1019.8
20260502115815 8 76 0.0 3.2 0.00 0.00 0.00 97 1019.7
20260502115311 8 76 0.0 3.2 0.00 0.00 0.00 97 1019.7
20260502114808 8 85 0.0 3.2 0.00 0.00 0.00 97 1019.8
20260502114304 8 89 0.0 0.0 0.00 0.00 0.00 97 1019.6
20260502113802 8 89 0.0 0.0 0.00 0.00 0.00 97 1019.6
20260502113259 8 5 0.0 0.0 0.00 0.00 0.00 97 1019.7
20260502112757 8 44 0.0 1.6 0.00 0.00 0.00 97 1019.5
20260502112255 9 70 0.0 1.6 0.00 0.00 0.00 96 1019.4
20260502111751 9 89 0.0 1.6 0.00 0.00 0.00 96 1019.4
20260502111030 9 101 0.0 1.6 0.00 0.00 0.00 96 1019.3
20260502110527 9 101 0.0 1.6 0.00 0.00 0.00 96 1019.3
20260502110025 10 67 0.0 0.0 0.00 0.00 0.00 96 1019.2
20260502105522 10 55 0.0 1.6 0.00 0.00 0.00 96 1019.4
20260502105019 10 27 0.0 0.0 0.00 0.00 0.00 96 1019.2
20260502104516 10 99 0.0 1.6 0.00 0.00 0.00 96 1019.2
20260502104014 10 89 0.0 1.6 0.00 0.00 0.00 96 1019.1
20260502103511 10 77 0.0 0.0 0.00 0.00 0.00 96 1019.1
20260502103009 10 55 0.0 1.6 0.00 0.00 0.00 96 1019.1
20260502102505 10 55 0.0 1.6 0.00 0.00 0.00 96 1019.1
20260502102002 10 304 0.0 1.6 0.00 0.00 0.00 96 1019.0
20260502101500 10 55 1.6 1.6 0.00 0.00 0.00 96 1018.9
20260502100958 10 38 0.0 0.0 0.00 0.00 0.00 96 1018.8
20260502100457 11 55 0.0 0.0 0.00 0.00 0.00 96 1018.8
20260502091431 11 33 0.0 1.6 0.00 0.00 0.00 95 1018.6
20260502090928 11 66 0.0 0.0 0.00 0.00 0.00 95 1018.7
20260502090425 11 76 0.0 0.0 0.00 0.00 0.00 95 1018.6
20260502071320 12 6 0.0 1.6 0.00 0.00 0.00 98 1018.8
20260502070818 12 66 0.0 0.0 0.00 0.00 0.00 98 1019.0
20260502070315 12 22 0.0 0.0 0.00 0.00 0.00 98 1018.7
20260502065814 12 18 0.0 1.6 0.00 0.00 0.00 98 1018.8
20260502065312 12 32 0.0 1.6 0.00 0.00 0.00 98 1018.8
20260502064810 12 50 0.0 1.6 0.00 0.00 0.00 98 1018.7
20260502064307 12 32 0.0 1.6 0.00 0.00 0.00 98 1018.8
20260502063804 12 59 0.0 1.6 0.00 0.00 0.00 98 1018.8
20260502063303 12 22 0.0 1.6 0.00 0.00 0.00 98 1018.9
20260502062759 12 32 0.0 1.6 0.00 0.00 0.00 98 1018.9
20260502062257 12 43 0.0 1.6 0.00 0.00 0.00 98 1018.9
20260502061755 12 47 0.0 0.0 0.00 0.00 0.00 98 1018.9
20260502061253 12 66 0.0 1.6 0.00 0.00 0.00 97 1018.8
20260502060753 12 50 0.0 0.0 0.00 0.00 0.00 97 1018.8
20260502060249 12 38 0.0 0.0 0.00 0.00 0.00 97 1018.9
20260502055748 12 25 0.0 1.6 0.00 0.00 0.00 97 1018.9
20260502055245 12 42 0.0 1.6 0.00 0.00 0.00 97 1018.8
20260502054744 12 50 0.0 0.0 0.00 0.00 0.00 97 1018.9
20260502054241 12 44 0.0 1.6 0.00 0.00 0.00 97 1019.1
20260502053739 12 44 0.0 0.0 0.00 0.00 0.00 97 1019.1
20260502053236 12 304 0.0 1.6 0.00 0.00 0.00 97 1018.9
20260502052734 12 50 0.0 0.0 0.00 0.00 0.00 97 1018.9
20260502052231 12 64 1.6 3.2 0.00 0.00 0.00 97 1018.7
20260502051729 12 50 0.0 0.0 0.00 0.00 0.00 97 1018.8
20260502051227 12 50 0.0 0.0 0.00 0.00 0.00 97 1018.8
20260502050723 12 50 0.0 1.6 0.00 0.00 0.00 97 1018.7
20260502050220 12 290 0.0 1.6 0.00 0.00 0.00 97 1018.7
20260502045717 12 315 0.0 1.6 0.00 1.12 1.12 97 1018.6
20260502045214 12 336 0.0 1.6 0.00 1.12 1.12 97 1018.6
20260502044710 12 55 0.0 3.2 0.00 1.12 1.12 97 1018.3
20260502044207 12 5 0.0 1.6 0.00 1.12 1.12 97 1018.5
20260502043704 12 315 0.0 0.0 0.00 1.12 1.12 97 1018.5
20260502043202 12 31 0.0 1.6 0.00 1.12 1.12 97 1018.6
20260502042701 12 320 0.0 0.0 0.00 1.12 1.12 97 1018.5
20260502042159 12 50 0.0 0.0 0.00 1.12 1.12 97 1018.5
20260502041656 12 6 0.0 0.0 0.00 1.12 1.12 97 1018.3
20260502041153 12 336 0.0 0.0 0.00 1.12 1.12 97 1018.4
20260502040649 12 310 0.0 0.0 0.00 1.12 1.12 97 1018.3
20260502040147 12 5 0.0 0.0 0.00 1.12 1.12 97 1018.4
20260502035643 12 283 0.0 0.0 0.00 1.12 1.12 97 1018.2
20260502035140 12 69 0.0 0.0 0.00 1.12 1.12 97 1018.1
20260502034638 13 302 0.0 1.6 0.00 1.12 1.12 97 1018.2
20260502034136 12 22 0.0 0.0 0.00 1.12 1.12 97 1018.3
20260502033634 12 50 0.0 1.6 0.00 1.12 1.12 97 1018.1
20260502033131 12 50 0.0 3.2 0.00 1.12 1.12 97 1018.1
20260502032626 12 17 0.0 1.6 0.00 1.12 1.12 97 1018.2
20260502032124 12 99 0.0 1.6 0.00 1.12 1.12 97 1017.8
20260502031621 12 124 0.0 3.2 0.00 1.12 1.12 97 1018.0
20260502031118 12 50 0.0 0.0 0.00 1.12 1.12 97 1018.1
20260502030618 13 315 0.0 0.0 0.00 1.12 1.12 97 1018.2
20260502030115 12 352 0.0 1.6 0.00 1.12 1.12 97 1018.2
20260502025612 12 290 0.0 0.0 0.00 1.12 1.12 97 1018.0
20260502025110 12 15 0.0 3.2 0.05 1.12 1.12 96 1017.6
20260502024608 13 58 0.0 1.6 0.05 1.12 1.12 96 1017.5
20260502024106 13 89 0.0 0.0 0.00 1.12 1.12 96 1017.5
20260502023604 13 55 0.0 0.0 0.00 1.12 1.12 96 1017.6
20260502023100 13 44 0.0 0.0 0.00 1.12 1.12 96 1017.8
20260502022557 13 138 1.6 3.2 0.00 1.12 1.12 96 1018.0
20260502022055 13 46 3.2 3.2 0.00 1.12 1.12 96 1018.2
20260502021552 13 59 0.0 1.6 0.00 1.12 1.12 96 1018.4
20260502021048 13 60 0.0 0.0 0.00 1.12 1.12 96 1018.4
20260502020547 13 123 1.6 1.6 0.00 1.12 1.12 96 1018.1
20260502020043 13 130 0.0 0.0 0.00 1.12 1.12 96 1017.8
20260502015541 13 60 0.0 0.0 0.00 1.12 1.12 96 1017.6
20260502015037 13 87 1.6 3.2 0.00 1.12 1.12 96 1017.7
20260502014534 13 38 0.0 0.0 0.00 1.12 1.12 96 1017.8
20260502014031 13 113 0.0 0.0 0.00 1.12 1.12 95 1017.3
20260502013526 13 113 0.0 0.0 0.00 1.12 1.12 95 1017.3
20260502013023 13 61 0.0 1.6 0.00 1.12 1.12 95 1017.4
20260502012520 13 11 0.0 1.6 0.00 1.12 1.12 95 1017.0
20260502012018 13 57 0.0 3.2 0.00 1.12 1.12 95 1016.9
20260502011514 13 44 0.0 1.6 0.00 1.12 1.12 95 1016.8
20260502011011 13 38 0.0 3.2 0.00 1.12 1.12 94 1016.7
20260502010508 13 31 1.6 3.2 0.00 1.12 1.12 94 1017.1
20260502010004 13 282 0.0 1.6 0.00 1.12 1.12 94 1017.3
20260502005503 13 49 0.0 0.0 0.00 1.12 1.12 94 1017.2
20260502005000 13 315 0.0 1.6 0.00 1.12 1.12 94 1016.9
20260502004455 13 20 0.0 1.6 0.00 1.12 1.12 94 1016.9
20260502003952 13 32 1.6 3.2 0.00 1.12 1.12 94 1016.8
20260502003450 13 7 0.0 1.6 0.00 1.12 1.12 93 1017.1
20260502002946 13 45 0.0 1.6 0.00 1.12 1.12 93 1016.9
20260502002443 13 66 0.0 0.0 0.00 1.12 1.12 92 1017.2
20260502001941 13 44 0.0 0.0 0.05 1.12 1.12 92 1016.9
20260502001438 13 293 0.0 0.0 0.05 1.12 1.12 92 1017.0
20260502000936 13 55 0.0 1.6 0.00 1.09 1.09 92 1016.5
20260502000434 13 50 0.0 0.0 0.05 1.09 1.09 92 1016.7
20260501235929 13 129 0.0 0.0 0.05 1.09 1.09 92 1016.7
20260501235425 13 113 0.0 0.0 0.00 1.09 1.09 92 1016.6
20260501234921 13 58 0.0 1.6 0.00 1.09 1.09 91 1016.5
20260501234418 13 31 0.0 0.0 0.00 1.09 1.09 91 1016.9
20260501233917 13 322 0.0 0.0 0.00 1.09 1.09 91 1016.6
20260501233414 13 320 0.0 0.0 0.00 1.09 1.09 91 1016.6
20260501232909 13 63 0.0 1.6 0.05 1.09 1.09 91 1016.5
20260501232406 13 0 0.0 1.6 0.05 1.09 1.09 90 1016.1
20260501231904 13 44 0.0 3.2 0.00 1.07 1.07 90 1016.5
20260501231402 13 66 0.0 1.6 0.05 1.07 1.07 89 1016.5
20260501230900 14 42 0.0 3.2 0.05 1.07 1.07 88 1016.3
20260501230359 14 28 1.6 3.2 0.00 1.07 1.07 86 1016.4
20260501225855 14 53 3.2 3.2 0.00 1.07 1.07 84 1016.5
20260501225353 14 345 0.0 0.0 0.00 1.07 1.07 82 1016.8
20260501224849 14 197 1.6 3.2 0.00 1.07 1.07 81 1016.6
20260501224347 14 34 0.0 3.2 0.00 1.07 1.07 81 1016.1
20260501223842 15 129 1.6 3.2 0.00 1.07 1.07 81 1015.9
20260501223338 15 20 1.6 3.2 0.00 1.07 1.07 80 1015.9
20260501221621 15 295 1.6 6.4 0.00 1.07 1.07 79 1015.1
20260501221119 15 295 1.6 6.4 0.00 1.07 1.07 79 1015.1
20260501220616 15 260 0.0 4.8 0.00 1.07 1.07 79 1015.2
20260501220113 15 89 0.0 3.2 0.00 1.07 1.07 79 1014.8
20260501215610 15 78 4.8 6.4 0.00 1.07 1.07 78 1014.8
20260501215105 15 69 3.2 6.4 0.00 1.07 1.07 78 1015.1
20260501214600 15 0 1.6 9.7 0.00 1.07 1.07 78 1015.1
20260501214056 15 79 3.2 4.8 0.00 1.07 1.07 78 1015.2
20260501213553 15 93 4.8 6.4 0.00 1.07 1.07 80 1015.3
20260501213049 15 51 3.2 4.8 0.00 1.07 1.07 82 1015.4
20260501212546 14 85 1.6 3.2 0.00 1.07 1.07 83 1015.8
20260501212043 14 35 1.6 3.2 0.00 1.07 1.07 83 1016.0
20260501211539 14 33 3.2 3.2 0.00 1.07 1.07 82 1016.4
20260501211038 14 33 3.2 3.2 0.00 1.07 1.07 82 1016.4
20260501210533 14 59 3.2 6.4 0.00 1.07 1.07 82 1016.4
20260501210030 15 47 3.2 4.8 0.00 1.07 1.07 82 1016.4
20260501205527 15 34 1.6 3.2 0.00 1.07 1.07 81 1016.3
20260501205025 15 24 1.6 3.2 0.00 1.07 1.07 82 1016.3
20260501204520 15 53 0.0 4.8 0.00 1.07 1.07 81 1015.8
20260501204016 15 11 3.2 9.7 0.00 1.07 1.07 78 1015.8
20260501203514 15 310 1.6 4.8 0.00 1.07 1.07 81 1015.1
20260501203011 15 306 3.2 9.7 0.00 1.07 1.07 79 1015.0
20260501202508 15 76 3.2 9.7 0.00 1.07 1.07 81 1014.4
20260501202004 15 349 0.0 9.7 0.00 1.07 1.07 82 1014.2
20260501201502 15 283 1.6 8.0 0.00 1.07 1.07 85 1014.3
20260501200958 15 328 1.6 8.0 0.00 1.07 1.07 84 1014.2
20260501200455 15 197 0.0 12.9 0.00 1.07 1.07 84 1014.1
20260501195953 16 18 3.2 6.4 0.00 1.07 1.07 83 1014.2
20260501195450 15 159 4.8 9.7 0.00 1.07 1.07 85 1014.2
20260501194945 15 339 1.6 4.8 0.00 1.07 1.07 89 1014.1
20260501194441 15 350 1.6 4.8 0.00 1.07 1.07 90 1014.3
20260501193937 15 18 1.6 4.8 0.00 1.07 1.07 91 1014.6
20260501193435 14 25 0.0 6.4 0.00 1.07 1.07 93 1014.4
20260501192933 13 73 0.0 6.4 0.00 1.07 1.07 92 1014.7
20260501192430 13 94 1.6 9.7 0.00 1.07 1.07 93 1014.5
20260501191927 13 25 0.0 4.8 0.00 1.07 1.07 94 1014.7
20260501191424 13 7 1.6 4.8 0.00 1.07 1.07 94 1015.1
20260501190921 13 69 3.2 9.7 0.00 1.07 1.07 94 1015.6
20260501190417 13 35 3.2 9.7 0.00 1.07 1.07 94 1015.8
20260501185917 13 13 0.0 6.4 0.00 1.07 1.07 95 1016.1
20260501185414 13 1 6.4 6.4 0.00 1.07 1.07 95 1016.2
20260501184500 13 41 3.2 4.8 0.05 1.07 1.07 96 1016.6
20260501184000 13 41 3.2 4.8 0.05 1.07 1.07 96 1016.6
20260501183458 13 342 0.0 4.8 0.00 1.07 1.07 96 1016.6
20260501182629 12 5 0.0 4.8 0.05 1.07 1.07 96 1017.2
20260501182126 12 5 0.0 4.8 0.05 1.07 1.07 96 1017.2
20260501181623 12 32 0.0 9.7 0.05 1.07 1.07 95 1017.1
20260501181120 12 62 3.2 9.7 0.05 1.04 1.04 95 1016.8
20260501180618 12 35 4.8 8.0 0.05 1.04 1.04 95 1016.8
20260501180114 12 58 3.2 4.8 0.05 1.04 1.04 95 1016.8
20260501174633 12 76 0.0 3.2 0.05 1.02 1.02 95 1017.6
20260501174131 12 76 0.0 3.2 0.05 1.02 1.02 95 1017.6
20260501173629 12 45 3.2 6.4 0.00 1.02 1.02 95 1018.0
20260501173125 12 40 6.4 6.4 0.05 1.02 1.02 96 1017.9
20260501172621 12 147 0.0 0.0 0.05 1.02 1.02 97 1018.0
20260501172116 12 30 1.6 4.8 0.00 0.99 0.99 97 1017.7
20260501171612 12 65 3.2 4.8 0.05 0.99 0.99 97 1017.9
20260501171110 12 18 0.0 4.8 0.00 0.99 0.99 97 1018.1
20260501170607 12 18 0.0 4.8 0.00 0.99 0.99 97 1018.1